Weather History for Greenwood, NS

Change the Weather History Date:

Sunday, January 27, 2013

  Actual Average Record
Temperature  
Mean Temperature 14 °F -  
Max Temperature 19 °F 31 °F 46 °F (2014)
Min Temperature 9 °F 13 °F -5 °F (2008)
Degree Days  
Heating Degree Days 51    
Moisture  
Dew Point 8 °F    
Average Humidity 76    
Maximum Humidity 86    
Minimum Humidity 60    
Precipitation  
Precipitation 0.00 in 0.11 in - ()
Sea Level Pressure  
Sea Level Pressure 30.04 in    
Wind  
Wind Speed 9 mph ()    
Max Wind Speed 14 mph    
Max Gust Speed 21 mph    
Visibility 14.5 miles    
Events Snow    
Averages and records for this station are not official NWS values.
T = Trace of Precipitation, MM = Missing Value Source: Averaged Metar Reports

Daily Weather History Graph

Daily Weather History Graph

Search for Another Location

Airport:

Trip Planner

Search our weather history database for the weather conditions in past years. The results will help you decide how hot, cold, wet, or windy it might be!

Date:

Astronomy

Jan. 27, 2013 Rise Set
Actual Time 7:44 AM AST 5:20 PM AST
Civil Twilight 7:12 AM AST 5:52 PM AST
Nautical Twilight 6:37 AM AST 6:28 PM AST
Astronomical Twilight 6:02 AM AST 7:02 PM AST
Moon 6:15 PM AST (1/27) 7:31 AM AST (1/27)
Length of Visible Light 10h 39m
Length of Day
9h 36m
Full, 100% of the Moon is Illuminated
Jan 27
Full
Feb 3
Last Quarter
Feb 10
New
Feb 17
First Quarter
Feb 25
Full

Hourly Weather History & Observations

Time (AST) Temp. Windchill Dew Point Humidity Pressure Visibility Wind Dir Wind Speed Gust Speed Precip Events Conditions
12:00 AM 12.2 °F -1.0 °F 6.8 °F 79% 29.90 in 15.0 mi NW 10.4 mph - N/A   Overcast
1:00 AM 12.2 °F 0.7 °F 6.8 °F 79% 29.90 in 15.0 mi NW 8.1 mph - N/A   Overcast
2:00 AM 13 °F - 6 °F 62% 29.90 in 15 mi WNW 9.2 mph - -   Overcast
2:00 AM 12.2 °F 0.7 °F 6.8 °F 79% 29.90 in 15.0 mi WNW 8.1 mph - N/A   Overcast
3:00 AM 14.0 °F 2.9 °F 5.0 °F 67% 29.91 in 15.0 mi NW 8.1 mph - N/A   Overcast
3:35 AM - - - N/A% - 15.0 mi WNW 11.5 mph 17.3 mph N/A   Unknown
4:00 AM 12.2 °F -1.8 °F 6.8 °F 79% 29.90 in 15.0 mi WNW 11.5 mph - N/A Snow Light Snow Showers
5:00 AM 12.2 °F -1.8 °F 8.6 °F 85% 29.92 in 12.0 mi NW 11.5 mph - N/A Snow Light Snow Showers
6:00 AM 12.2 °F -1.8 °F 5.0 °F 73% 29.93 in 12.0 mi WNW 11.5 mph 18.4 mph N/A Snow Light Snow Showers
7:00 AM 10.4 °F -4.8 °F 6.8 °F 85% 29.96 in 12.0 mi NW 12.7 mph 18.4 mph N/A Snow Light Snow Showers
8:00 AM 11 °F - 6 °F 74% 30.00 in 15 mi NW 11.5 mph - - Snow Light Snow Showers
8:00 AM 10.4 °F -4.1 °F 6.8 °F 85% 29.99 in 15.0 mi NW 11.5 mph 20.7 mph N/A Snow Light Snow Showers
9:00 AM 10.4 °F -5.4 °F 6.8 °F 85% 30.02 in 12.0 mi NW 13.8 mph - N/A Snow Light Snow Showers
10:00 AM 12.2 °F -2.5 °F 5.0 °F 73% 30.04 in 12.0 mi NW 12.7 mph - N/A Snow Light Snow Showers
11:00 AM 12.2 °F -1.8 °F 6.8 °F 79% 30.05 in 15.0 mi NW 11.5 mph - N/A Snow Light Snow Showers
12:00 PM 14.0 °F -0.8 °F 6.8 °F 73% 30.05 in 15.0 mi WNW 13.8 mph - N/A Snow Light Snow Showers
1:00 PM 14.0 °F 0.5 °F 8.6 °F 79% 30.05 in 15.0 mi WNW 11.5 mph - N/A Snow Light Snow Showers
2:00 PM 16 °F - 11 °F 75% 30.06 in 15 mi WNW 9.2 mph - - Snow Light Snow Showers
2:00 PM 15.8 °F 3.4 °F 12.2 °F 86% 30.05 in 15.0 mi West 10.4 mph - N/A Snow Light Snow Showers
2:37 PM - - - N/A% - 15.0 mi WNW 11.5 mph 18.4 mph N/A   Mostly Cloudy
3:00 PM 17.6 °F 7.3 °F 12.2 °F 79% 30.07 in 15.0 mi WNW 8.1 mph - N/A   Mostly Cloudy
4:00 PM 19.4 °F 8.6 °F 14.0 °F 80% 30.09 in 15.0 mi WNW 9.2 mph - N/A   Scattered Clouds
5:00 PM 19.4 °F 9.5 °F 15.8 °F 86% 30.10 in 15.0 mi West 8.1 mph - N/A   Partly Cloudy
6:00 PM 19.4 °F 6.6 °F 12.2 °F 74% 30.13 in 15.0 mi West 12.7 mph - N/A   Scattered Clouds
7:00 PM 17.6 °F 5.0 °F 10.4 °F 73% 30.14 in 15.0 mi West 11.5 mph 18.4 mph N/A   Scattered Clouds
8:00 PM 17 °F - 9 °F 60% 30.17 in 15 mi WNW 12.7 mph - -   Partly Cloudy
8:00 PM 17.6 °F 3.7 °F 8.6 °F 68% 30.17 in 15.0 mi WNW 13.8 mph - N/A   Partly Cloudy
9:00 PM 15.8 °F 3.4 °F 10.4 °F 79% 30.19 in 15.0 mi West 10.4 mph - N/A   Mostly Cloudy
10:00 PM 15.8 °F 6.1 °F 6.8 °F 68% 30.20 in 15.0 mi West 6.9 mph - N/A   Mostly Cloudy
11:00 PM 15.8 °F 5.1 °F 8.6 °F 73% 30.21 in 15.0 mi WNW 8.1 mph - N/A   Mostly Cloudy
11:08 PM - - - N/A% - 15.0 mi WNW 10.4 mph - N/A   Mostly Cloudy